Starlink 11436

operational
NORAD ID: 62887 Int'l Des: 2025-024 Owner: SPXS Country: US Constellation: starlink
LEOCIRCULAR

Über Starlink 11436

Beschreibung wird geladen...

Live-Position

3D-Globus wird geladen...

Nächste Überflüge

Höhenverlauf

Altitude vs Time

uPlot chart will show altitude changes over time

Zweizeiliger Elementsatz

1 62887U 25024J 25351.89730882 .00216770 00000-0 16478-2 0 9996
2 62887 42.9997 314.3951 0001345 294.6182 65.4545 15.70859378 50607
Epoch: 17. Dez. 2025 • Age: 14 hours

Aktueller Status

Höhe 358.6 km
Geschwindigkeit 7.70 km/s
Subsatellitenpunkt 39.19°N, 110.61°E
Startdatum 4. Feb. 2025
Alter 0.8 years
Typ internet

Technische Details

Klassifizierung Payload
Masse 960.00 kg
Trockenmasse 910.00 kg
Gesamtmasse 960.00 kg
Länge 0.30 m
Durchmesser 4.10 m
Spannweite 29.00 m
Form Box + pan
Hersteller SPXS
Bus-Typ Starlink V2MD
Phasenstatus In Orbit
Besitzer/Staat SPXS/US

Große Konstellationen

Loading constellations...